GFSFLT1_2pvu_pres_282.txt.gz
Presure
191 199 190 193 124 128 122 112 111 133 122 109 100 107 121 122 124 119 123 123 119 122 122 125 127 130 134 135 125 119 119 122
244 214 207 182 123 202 221 231 151 127 133 137 129 104 116 112 104 117 126 129 121 138 125 124 120 124 127 131 136 139 140 128
220 214 220 214 188 204 140 133 125 122 128 117 103 126 118 136 105 121 118 119 124 125 129 132 123 121 117 124 126 129 133 136
217 217 161 155 211 139 193 188 215 187 142 157 149 118 127 131 148 116 122 119 126 122 124 128 131 131 121 121 118 123 123 127
215 82 81 140 219 171 145 227 137 203 127 131 185 158 188 157 117 141 119 144 120 130 132 128 127 125 132 128 130 130 125 131
221 201 211 219 222 120 112 203 214 224 228 124 214 206 133 114 212 199 154 146 214 140 124 128 131 139 134 126 125 128 135 131
230 221 206 227 225 210 215 224 218 164 123 142 212 230 212 155 129 186 214 160 154 161 134 119 131 128 123 131 131 129 123 116
213 216 218 216 217 226 231 225 137 223 213 210 215 119 156 164 205 177 222 225 202 157 146 103 149 118 132 133 127 127 130 126
218 217 209 211 218 222 219 229 230 234 237 237 215 121 242 251 256 282 253 236 253 147 225 222 117 173 136 131 128 112 133 135
225 224 227 231 238 235 226 228 237 242 264 265 267 241 280 276 277 280 285 290 269 306 319 311 263 288 195 89 116 139 122 134
253 238 240 243 246 246 247 244 254 269 263 258 256 252 251 215 256 257 264 269 275 278 286 288 290 290 262 304 179 125 121 117
254 255 258 261 262 260 255 248 244 242 238 239 242 242 243 245 309 325 332 332 349 359 344 362 355 269 270 275 285 247 287 272
242 242 239 238 234 234 232 225 228 230 237 237 282 281 279 277 280 288 294 304 311 312 318 336 353 346 366 269 265 265 261 269
225 223 216 215 220 225 226 229 239 265 270 267 265 273 263 255 242 265 267 270 279 282 289 305 294 307 320 342 291 263 261 254
214 217 219 218 222 225 256 256 254 266 255 255 245 250 245 249 258 255 262 164 255 266 271 268 279 277 289 303 314 296 276 188
212 215 219 221 252 254 254 250 248 255 251 243 239 236 241 227 224 223 249 250 259 258 258 261 267 268 269 272 282 295 302 289
211 234 245 246 242 245 246 245 241 241 251 247 240 238 231 230 225 236 237 239 233 233 259 254 260 257 261 269 269 285 281 294
234 239 238 242 246 261 264 262 258 252 139 240 238 238 240 236 234 235 234 237 102 238 142 234 250 262 264 264 268 272 278 285
228 230 231 224 221 223 247 253 253 250 245 242 238 234 231 231 236 235 237 234 232 235 240 249 248 241 243 252 256 267 287 293

GFSFLT1_2pvu_pres_285.txt.gz
Presure
177 83 196 183 121 130 121 93 123 124 115 108 127 112 141 121 121 139 123 119 149 118 131 129 118 118 123 127 131 117 118 124
197 191 194 180 184 123 120 107 117 124 100 96 122 133 125 136 116 119 141 126 119 124 140 127 118 119 120 123 124 127 132 136
123 193 138 198 201 132 217 229 178 122 213 169 210 131 140 123 117 119 123 107 131 127 125 155 123 127 134 134 137 124 127 129
214 226 231 223 157 228 217 227 183 208 169 157 127 226 112 132 127 119 113 120 106 113 118 118 126 112 129 129 145 137 137 127
213 203 188 231 225 222 127 197 90 173 219 136 139 209 226 228 222 99 151 128 121 124 126 138 113 130 122 131 122 124 127 132
209 217 224 229 226 215 213 84 211 222 213 109 91 205 226 106 124 212 135 124 125 115 100 108 138 118 120 127 119 133 131 130
206 209 206 231 243 231 221 193 193 217 225 213 213 224 215 179 184 218 223 129 152 127 129 170 220 127 144 118 106 112 128 131
197 198 217 220 242 216 250 223 212 214 209 189 222 226 213 131 160 207 222 229 231 129 162 126 182 195 170 125 178 128 120 113
191 187 189 192 196 217 207 217 238 242 218 198 98 107 239 181 234 234 239 104 122 230 83 86 222 148 150 235 227 234 136 133
227 227 222 222 221 220 223 227 225 222 223 223 222 226 231 232 234 238 250 259 297 300 302 121 149 276 187 288 311 237 257 148
233 226 220 216 219 225 227 224 224 227 231 237 240 240 249 266 276 269 260 256 254 158 261 264 165 292 309 300 103 93 222 198
261 234 234 236 236 233 236 236 242 244 245 257 273 268 257 250 243 242 242 241 271 265 283 289 304 321 325 332 340 346 290 340
259 260 260 261 263 269 272 272 265 257 251 243 240 231 234 232 237 277 277 282 280 280 282 282 250 294 297 296 310 313 311 328
250 252 254 254 251 246 240 237 233 227 225 230 230 238 267 268 263 258 256 261 264 272 272 269 268 269 275 282 282 284 292 292
233 232 226 226 220 217 220 217 217 222 246 264 259 252 257 253 248 241 249 231 241 245 241 241 244 242 252 255 263 268 274 278
213 214 215 214 214 216 216 229 257 256 254 252 249 248 243 250 244 243 241 242 243 245 244 248 243 249 253 256 256 255 258 262
208 208 209 214 205 218 244 247 248 265 272 267 263 259 250 246 248 246 243 244 239 240 241 240 240 242 254 257 250 250 248 249
201 201 203 208 235 237 238 238 235 229 254 254 251 252 250 244 242 240 238 237 237 238 239 248 252 256 259 261 266 269 275 282
207 211 225 235 230 232 230 228 222 234 228 231 233 234 233 230 226 225 224 221 238 241 239 243 244 248 250 244 254 267 277 282

GFSFLT1_2pvu_pres_288.txt.gz
Presure
151 84 134 104 181 115 121 87 119 109 99 129 114 136 122 123 153 133 136 123 114 143 131 134 128 120 127 130 127 124 128 132
81 180 80 121 130 211 183 190 139 104 136 100 159 115 120 135 109 127 113 168 131 122 139 142 131 129 136 134 113 131 134 120
213 218 216 223 139 150 151 183 129 142 124 126 194 160 116 148 116 104 127 124 105 134 114 107 142 148 132 124 146 136 140 140
207 224 223 211 196 190 170 189 110 122 124 215 162 122 125 118 127 116 98 100 100 121 146 123 118 110 137 131 132 146 129 125
221 224 227 235 204 236 234 217 158 130 226 179 229 147 159 231 219 210 217 237 216 86 111 180 141 120 116 126 139 118 123 129
207 216 231 217 214 208 158 224 226 224 237 223 223 236 232 224 216 220 151 221 121 126 216 179 214 99 124 91 122 127 125 137
200 206 210 208 214 217 225 223 216 224 229 224 216 205 220 228 118 94 88 182 173 196 208 194 226 232 212 193 144 132 109 124
205 208 206 208 209 206 208 214 211 212 217 216 238 150 217 215 217 139 216 226 229 222 227 181 233 238 127 156 190 143 123 145
210 211 209 205 205 205 205 207 208 203 204 206 242 242 227 247 218 226 220 220 220 220 223 235 252 248 231 242 246 253 240 117
217 208 211 209 210 209 209 204 203 215 204 200 204 210 235 210 212 239 241 236 237 238 212 229 250 259 149 288 292 290 223 154
230 233 229 224 220 222 226 230 233 210 227 225 226 226 224 224 229 230 233 241 248 252 273 276 266 263 262 260 260 274 282 305
257 254 256 255 245 236 228 227 227 226 226 225 226 229 233 240 247 248 267 269 257 251 246 242 241 246 278 290 287 290 239 290
287 286 281 274 237 243 244 237 235 235 235 239 240 232 272 266 256 246 241 238 238 235 267 267 264 260 267 255 246 276 277 275
252 255 256 259 261 263 264 267 269 269 264 256 249 241 236 232 229 228 236 263 268 257 262 253 253 242 249 253 260 253 243 234
237 237 240 241 240 240 238 237 235 233 229 224 221 218 222 255 266 261 259 258 254 256 252 255 255 255 253 253 252 252 255 255
222 222 221 217 218 219 219 221 218 218 218 216 260 284 282 277 274 268 264 257 252 248 245 246 241 240 242 249 253 255 258 265
223 223 221 219 221 217 215 213 207 212 250 244 246 243 259 261 256 254 253 246 243 241 238 235 230 249 251 250 255 261 270 265
212 210 209 208 211 209 204 207 243 241 240 238 235 234 228 232 230 227 221 219 232 253 248 245 242 245 248 245 257 249 260 256
207 211 212 212 211 211 222 236 235 231 234 227 220 219 219 218 216 221 224 244 244 236 235 240 242 246 234 253 240 243 243 248

GFSFLT1_2pvu_pres_291.txt.gz
Presure
216 135 196 125 143 121 119 133 118 128 130 128 117 120 179 150 126 125 133 109 131 123 129 141 121 141 130 126 130 126 132 140
235 184 219 213 124 110 191 133 119 114 78 112 131 133 114 112 104 145 125 117 143 125 130 152 129 132 122 124 143 133 137 138
227 233 224 190 245 204 126 121 111 192 145 133 112 135 119 108 129 133 149 108 114 107 102 106 176 104 111 129 123 128 139 129
213 222 218 97 134 130 207 99 121 135 83 213 129 138 123 191 245 207 155 113 190 189 104 98 117 115 172 132 118 128 132 127
200 215 215 212 218 212 188 220 157 206 222 184 213 147 221 124 131 124 126 132 192 117 139 142 134 120 119 124 172 121 144 119
195 210 212 213 216 221 219 230 245 199 227 226 238 107 224 96 230 232 123 237 226 233 100 192 99 242 100 187 241 168 253 126
195 196 201 203 203 208 211 215 227 229 235 225 217 221 213 136 222 232 226 155 210 224 156 194 186 232 237 237 239 246 144 94
201 195 192 193 193 194 203 202 203 213 212 213 214 210 153 219 218 211 138 219 227 231 241 224 223 226 226 228 229 229 239 234
204 200 200 198 198 200 197 195 201 209 212 211 213 211 214 217 210 218 213 213 201 229 247 245 110 247 260 253 257 249 258 256
201 195 195 194 201 205 204 205 210 212 207 205 207 216 211 211 217 205 209 212 192 83 94 225 225 232 237 241 250 262 275 294
206 203 201 202 210 211 220 221 223 223 234 227 228 236 220 235 216 218 232 228 227 227 232 240 250 262 277 275 262 193 255 254
234 234 231 225 226 231 233 232 234 236 238 232 228 227 225 224 226 227 231 236 243 249 264 269 259 251 244 240 243 272 268 265
218 220 222 229 237 246 254 261 251 253 255 248 247 246 250 234 234 233 237 273 263 254 246 239 233 236 265 262 262 256 260 262
251 259 257 277 278 278 277 276 272 271 272 271 271 270 269 266 262 254 246 241 236 231 250 268 264 256 254 253 253 253 252 251
239 236 242 247 251 252 254 253 252 252 250 248 245 242 239 235 232 228 259 289 285 275 268 259 256 254 251 248 246 242 252 262
239 241 238 231 235 233 231 231 230 230 228 227 226 224 222 219 257 256 256 254 251 250 247 243 238 233 232 245 255 256 255 250
224 229 224 217 215 215 216 219 217 224 215 217 217 216 243 246 241 237 231 232 231 227 225 225 248 253 250 246 244 249 243 250
217 215 211 216 221 221 222 222 214 214 214 205 243 241 238 234 230 224 223 219 218 219 216 226 223 241 242 242 240 245 244 241
213 212 212 209 207 208 208 212 213 209 230 238 236 233 228 226 224 220 214 209 225 239 238 240 233 236 236 243 246 240 236 245